Total_Precipitation_Accumulation
1.40 1.50 1.34 1.29 1.15 1.43 1.76 1.96 2.03 2.18 2.27 2.23 1.92 1.67 1.55 1.28 1.02 1.00 1.20 1.35 1.36 1.21 1.20 1.20 1.07 1.08 1.11 0.98 0.87 0.82 0.76 0.72 0.62 0.51 0.44 0.39 0.34 0.23 0.14 0.11 0.12 0.15 0.13
1.62 1.68 1.63 1.53 1.30 1.43 1.75 2.10 2.17 2.38 2.32 2.33 1.83 1.59 1.51 1.47 1.24 1.08 1.11 1.35 1.29 1.16 1.06 1.10 1.14 1.17 1.16 1.08 0.96 0.83 0.75 0.72 0.67 0.55 0.46 0.39 0.34 0.30 0.26 0.19 0.17 0.18 0.16
1.88 2.05 1.94 1.62 1.46 1.64 1.82 1.84 1.95 2.42 2.24 2.15 1.91 1.89 1.81 1.60 1.38 1.24 1.17 1.22 1.18 1.13 0.97 0.91 1.03 1.12 1.19 1.18 1.13 1.00 0.85 0.70 0.61 0.53 0.46 0.39 0.33 0.28 0.30 0.28 0.26 0.26 0.21
1.71 1.88 1.62 1.31 1.47 1.75 1.87 1.77 1.77 2.12 2.17 2.14 2.07 1.95 1.85 1.63 1.40 1.31 1.24 1.11 1.04 0.86 0.85 0.86 0.96 1.08 1.24 1.30 1.31 1.33 1.18 0.86 0.64 0.51 0.43 0.40 0.36 0.27 0.21 0.23 0.27 0.31 0.25
1.08 1.19 1.03 0.97 1.21 1.48 1.48 1.31 1.43 1.69 1.77 1.83 1.78 1.54 1.35 1.15 1.03 1.01 0.96 0.87 0.92 0.87 0.83 0.79 0.90 0.99 1.15 1.35 1.46 1.49 1.44 1.13 0.79 0.63 0.54 0.49 0.47 0.36 0.23 0.19 0.26 0.29 0.26
0.75 0.83 0.82 0.79 0.88 0.92 0.94 1.09 1.24 1.39 1.28 1.34 1.27 1.06 1.01 0.87 0.80 0.76 0.63 0.62 0.67 0.64 0.62 0.74 0.83 0.73 0.89 1.10 1.25 1.36 1.43 1.34 1.00 0.80 0.69 0.65 0.67 0.51 0.30 0.25 0.28 0.25 0.22
0.64 0.64 0.61 0.63 0.69 0.68 0.68 0.82 0.95 0.95 0.78 0.94 1.01 0.79 0.64 0.57 0.56 0.56 0.50 0.48 0.47 0.48 0.55 0.68 0.73 0.69 0.63 0.64 0.81 1.03 1.26 1.36 1.25 1.03 0.83 0.76 0.78 0.62 0.40 0.33 0.29 0.22 0.23
0.54 0.53 0.50 0.48 0.48 0.52 0.53 0.59 0.70 0.70 0.62 0.73 0.82 0.75 0.55 0.48 0.43 0.33 0.36 0.35 0.34 0.42 0.47 0.56 0.68 0.78 0.74 0.77 0.66 0.72 1.05 1.28 1.38 1.32 1.13 0.95 0.85 0.68 0.50 0.46 0.38 0.30 0.26
0.33 0.33 0.32 0.32 0.34 0.39 0.42 0.48 0.56 0.59 0.52 0.51 0.62 0.72 0.55 0.40 0.36 0.33 0.33 0.35 0.40 0.43 0.45 0.58 0.67 0.81 0.90 1.01 0.92 0.77 0.83 0.99 1.34 1.56 1.48 1.16 0.80 0.60 0.52 0.54 0.54 0.42 0.32
0.23 0.23 0.21 0.21 0.22 0.25 0.33 0.35 0.44 0.54 0.53 0.43 0.46 0.55 0.54 0.50 0.43 0.36 0.35 0.34 0.39 0.40 0.46 0.52 0.63 0.78 0.87 1.03 1.07 0.89 0.73 0.79 1.09 1.42 1.52 1.38 0.98 0.65 0.54 0.62 0.76 0.70 0.49
0.23 0.23 0.22 0.20 0.21 0.21 0.24 0.28 0.36 0.46 0.52 0.47 0.44 0.49 0.58 0.56 0.48 0.43 0.35 0.37 0.43 0.36 0.44 0.56 0.66 0.73 0.80 0.98 1.21 1.10 1.00 0.86 0.87 1.00 1.18 1.30 1.26 1.04 0.86 0.86 1.05 1.15 1.00
0.25 0.25 0.25 0.26 0.26 0.26 0.26 0.26 0.28 0.33 0.45 0.53 0.53 0.51 0.55 0.56 0.46 0.43 0.34 0.31 0.39 0.39 0.51 0.68 0.73 0.79 0.85 1.03 1.09 1.06 0.97 0.83 0.70 0.65 0.71 0.82 0.94 0.97 0.92 0.96 1.18 1.40 1.51
0.20 0.22 0.23 0.25 0.27 0.30 0.30 0.28 0.28 0.28 0.36 0.46 0.49 0.52 0.52 0.51 0.54 0.55 0.50 0.41 0.43 0.47 0.62 0.75 0.86 0.92 0.93 1.06 1.05 0.98 0.80 0.64 0.51 0.44 0.46 0.51 0.58 0.70 0.84 0.94 1.09 1.27 1.47
0.19 0.20 0.20 0.19 0.22 0.27 0.31 0.34 0.32 0.33 0.36 0.38 0.38 0.52 0.57 0.51 0.61 0.65 0.68 0.71 0.63 0.63 0.77 0.84 0.97 1.02 1.12 1.14 1.06 0.95 0.75 0.60 0.44 0.38 0.34 0.34 0.36 0.40 0.51 0.65 0.81 1.00 1.19
0.21 0.20 0.20 0.20 0.22 0.24 0.28 0.32 0.32 0.34 0.37 0.38 0.41 0.51 0.59 0.65 0.69 0.66 0.75 0.83 0.85 0.77 0.84 0.92 0.88 0.87 0.92 0.93 0.87 0.74 0.61 0.55 0.45 0.35 0.31 0.30 0.30 0.30 0.33 0.36 0.38 0.41 0.49
0.19 0.20 0.20 0.19 0.20 0.21 0.23 0.26 0.28 0.35 0.42 0.47 0.54 0.59 0.61 0.67 0.76 0.69 0.75 0.81 0.84 0.88 0.92 0.86 0.78 0.78 0.76 0.64 0.61 0.56 0.52 0.57 0.47 0.37 0.31 0.28 0.28 0.28 0.28 0.30 0.30 0.29 0.30
0.13 0.14 0.16 0.18 0.19 0.21 0.25 0.31 0.34 0.38 0.48 0.60 0.69 0.72 0.75 0.77 0.80 0.79 0.85 0.86 0.81 0.89 0.88 0.75 0.81 0.87 0.77 0.59 0.48 0.46 0.46 0.50 0.47 0.43 0.38 0.33 0.29 0.26 0.26 0.26 0.27 0.28 0.26
0.12 0.12 0.13 0.14 0.14 0.15 0.21 0.31 0.42 0.43 0.46 0.55 0.77 0.99 1.01 1.01 0.92 0.84 0.92 0.91 0.87 1.00 0.96 0.85 0.94 0.96 0.91 0.73 0.58 0.49 0.41 0.42 0.44 0.44 0.40 0.38 0.34 0.29 0.24 0.23 0.23 0.23 0.21
0.11 0.12 0.13 0.13 0.12 0.12 0.14 0.22 0.35 0.40 0.49 0.62 0.79 0.92 1.04 1.16 1.05 0.95 0.93 0.93 0.96 1.05 1.03 0.93 0.97 1.11 1.14 0.95 0.70 0.49 0.38 0.38 0.39 0.44 0.40 0.35 0.34 0.33 0.29 0.24 0.21 0.20 0.18
0.10 0.12 0.14 0.14 0.14 0.12 0.12 0.18 0.26 0.33 0.47 0.65 0.71 0.66 0.77 1.03 1.14 1.06 0.94 0.90 0.94 0.99 0.99 1.01 1.06 1.20 1.25 1.19 0.93 0.64 0.47 0.37 0.34 0.36 0.40 0.35 0.32 0.32 0.29 0.25 0.21 0.20 0.19
0.08 0.12 0.15 0.15 0.15 0.13 0.11 0.18 0.27 0.23 0.28 0.37 0.41 0.41 0.46 0.65 0.92 1.08 1.03 0.93 0.92 0.90 0.91 1.00 1.08 1.18 1.20 1.23 1.07 0.81 0.61 0.50 0.40 0.37 0.39 0.36 0.32 0.26 0.24 0.24 0.21 0.17 0.15
0.12 0.17 0.20 0.20 0.20 0.14 0.11 0.13 0.16 0.18 0.21 0.24 0.27 0.31 0.31 0.32 0.43 0.66 0.86 0.97 1.02 0.96 0.89 0.94 1.08 1.13 1.13 1.12 1.10 0.96 0.75 0.58 0.47 0.42 0.42 0.43 0.42 0.37 0.27 0.22 0.20 0.17 0.14
0.16 0.21 0.25 0.27 0.29 0.28 0.18 0.12 0.09 0.12 0.17 0.20 0.26 0.29 0.23 0.20 0.28 0.37 0.50 0.64 0.78 0.84 0.85 0.91 0.99 1.09 1.16 1.24 1.22 1.06 0.86 0.72 0.58 0.51 0.49 0.47 0.45 0.45 0.41 0.33 0.31 0.23 0.18
0.23 0.27 0.30 0.33 0.39 0.37 0.26 0.17 0.14 0.12 0.17 0.22 0.27 0.30 0.29 0.27 0.29 0.35 0.41 0.44 0.50 0.57 0.60 0.66 0.78 0.96 1.15 1.30 1.40 1.30 1.15 0.93 0.80 0.71 0.63 0.52 0.45 0.42 0.40 0.38 0.36 0.31 0.24
0.31 0.32 0.34 0.39 0.43 0.47 0.35 0.21 0.18 0.19 0.25 0.26 0.28 0.30 0.32 0.31 0.28 0.23 0.31 0.36 0.38 0.43 0.47 0.54 0.63 0.81 1.09 1.29 1.36 1.39 1.26 1.04 0.85 0.73 0.63 0.55 0.48 0.43 0.40 0.34 0.32 0.31 0.26
0.40 0.39 0.37 0.42 0.47 0.54 0.46 0.26 0.21 0.26 0.33 0.35 0.41 0.42 0.35 0.31 0.29 0.20 0.26 0.33 0.33 0.37 0.42 0.46 0.53 0.60 0.74 1.02 1.25 1.15 1.06 0.98 0.84 0.68 0.51 0.46 0.48 0.45 0.39 0.30 0.25 0.24 0.21